{"data":{"norad_id":55175,"intl_designator":"2023-004AM","name":"ONEWEB-0713","alt_names":[],"object_type":"PAYLOAD","status":"ACTIVE","operator":null,"country":"UK","launch_date":"2023-01-10","launch_site_code":"AFETR","launch_vehicle":null,"mission":null,"orbit_class":"UNKNOWN","rcs_meters":null,"size_class":null,"mass_kg":null,"dimensions":null,"purposes":["comms"],"wikipedia_slug":null,"has_3d_model":false,"image_url":null,"decayed_at":null,"tle_current":{"epoch":"2026-05-25T01:49:47.283744Z","epoch_age_seconds":78828,"freshness":"FRESH","line1":"1 55175U 23004AM  26145.07624171 -.00000503  00000+0 -14537-2 0  9999","line2":"2 55175  87.8911  25.6659 0002049  90.8981 269.2382 13.11415889162790","mean_motion":13.11415889,"eccentricity":0.0002049,"inclination_deg":87.8911,"raan_deg":25.6659,"arg_perigee_deg":90.8981,"mean_anomaly_deg":269.2382,"bstar":-0.0014537,"rev_number":16279,"period_min":109.80498345937,"perigee_km":1216.1303917026,"apogee_km":1219.243160286,"semimajor_km":7595.8237759943,"source":"CELESTRAK","updated_at":"2026-05-25T13:38:22.647170Z"}}}